User: anonymous   Login
Location: Hradec Kralove
(50.2170°N, 15.8330°E)
Time: 05:26:13
(UTC+01:00)
Language:

QB50P2 - Orbit

View from above orbital plane
View from above orbital plane
View from above satellite
View from above satellite

Ground track
Ground track

The orbit data is extracted from the following two-line orbital elements,

1 40032U 14033Y   24057.39318635  .00008401  00000-0  74452-3 0  9994
2 40032  97.9957   7.1585 0010719 158.6632 201.5038 14.96450221526468
Epoch (UTC): 26 February 2024 09:26:11
Eccentricity: 0.0010719
inclination: 97.9957°
perigee height: 570 km
apogee height: 585 km
right ascension of ascending node: 7.1585°
argument of perigee: 158.6632°
revolutions per day: 14.96450221
mean anomaly at epoch: 201.5038°
orbit number at epoch: 52646

The dashed part of the orbit path shows where the satellite is in the earth's shadow,  

DLR